Temperature
13 12 12 13 13 13 13 13 13 14 15 15 14 13 13 12 12 12 12 13 13 14 14 14 14 14 15 15 15 15 15 15 15 15 15 15 15 16
12 12 12 13 12 12 12 12 12 13 14 14 13 13 12 12 12 12 12 12 13 13 13 14 14 14 14 14 14 15 15 15 15 15 15 15 15 15
12 12 12 11 12 12 12 12 12 12 12 13 13 13 12 11 12 12 12 12 12 12 13 13 13 13 14 14 14 14 14 14 15 15 15 15 15 15
12 12 12 12 12 12 12 12 12 12 12 12 12 12 12 11 11 11 12 12 12 12 12 13 13 13 13 13 14 14 14 14 14 14 15 15 15 15
12 12 12 12 12 12 12 12 12 12 12 12 12 12 12 12 11 11 11 11 12 12 12 12 13 13 13 13 13 13 14 14 14 14 14 14 14 15
13 12 12 12 12 11 12 11 11 11 11 11 12 12 12 12 11 11 12 12 12 12 12 12 12 12 13 13 13 13 13 13 14 14 14 14 14 14
13 13 12 12 12 12 12 12 11 11 12 12 12 12 12 12 12 12 12 12 12 12 12 12 12 12 12 12 12 13 13 13 13 13 13 14 14 14
13 13 12 12 12 12 12 12 12 11 11 11 12 12 12 12 11 11 11 12 12 12 12 12 12 12 12 12 12 12 12 13 13 13 13 14 14 14
13 13 13 13 12 12 12 12 12 12 11 11 11 11 11 11 11 11 11 10 11 11 11 11 12 12 12 12 12 12 12 12 12 13 13 13 13 14
13 13 12 12 12 12 11 11 11 11 11 11 10 11 10 10 10 10 10 10 10 10 10 10 11 11 12 12 12 11 11 12 12 12 13 13 13 13
13 13 12 12 12 12 12 11 11 11 11 11 11 11 11 11 10 10 10 10 11 11 11 11 11 11 11 12 12 11 11 12 12 12 12 13 13 13
13 12 12 12 12 12 12 11 11 11 11 11 10 10 10 10 10 10 9 10 10 11 11 11 11 11 11 12 12 11 11 11 11 12 12 12 12 12
13 13 13 12 12 12 12 11 11 11 11 10 10 10 10 10 10 9 9 9 10 10 11 10 10 11 11 11 11 11 11 11 11 11 11 12 12 12
12 12 13 12 12 12 12 12 12 11 10 10 11 11 11 11 10 10 10 9 9 9 10 10 10 10 10 10 11 11 11 11 11 11 11 11 11 12
12 12 12 12 12 11 11 12 11 11 10 10 11 11 11 11 10 10 9 9 9 9 9 9 9 9 9 10 10 11 11 11 11 11 11 11 11 11
11 11 11 11 11 11 11 11 11 11 10 11 11 11 11 10 10 10 9 9 9 9 9 9 9 9 9 9 9 10 10 10 10 10 11 11 11 11
10 10 10 11 11 11 11 11 11 10 10 10 10 10 10 10 10 10 9 9 9 9 9 9 9 9 9 9 9 9 10 10 10 10 10 10 10 11
10 9 10 11 11 11 11 11 11 11 10 10 10 10 10 10 10 9 9 9 9 9 9 9 9 9 8 8 9 9 9 10 10 10 10 10 10 11
10 10 10 11 11 11 11 11 11 11 10 10 10 10 9 9 9 9 9 8 8 8 9 9 9 8 8 9 10 9 9 10 10 10 10 10 10 10
10 10 10 10 10 10 10 10 10 10 10 9 9 9 9 9 9 9 8 8 8 8 8 8 8 8 8 9 10 10 9 9 9 9 10 10 10 10
10 10 10 9 9 9 9 9 9 9 9 9 9 9 9 8 8 8 8 8 8 8 8 8 9 8 8 8 8 9 9 9 9 9 9 9 10 10
9 9 9 9 9 9 9 8 8 8 8 8 8 8 8 8 8 8 8 8 8 8 8 8 8 8 8 8 8 9 9 9 9 9 9 9 9 9
8 8 8 8 8 8 8 8 8 8 8 8 8 8 8 8 8 8 8 8 8 8 8 8 8 8 8 8 8 9 9 9 9 9 9 9 9 9
Wind_Speed
5 5 6 5 5 5 6 7 8 9 8 4 4 3 5 7 5 9 10 5 7 10 11 11 12 13 13 14 15 17 20 22 23 24 26 26 27 28
5 5 6 6 5 6 6 6 7 9 10 7 6 7 7 9 7 9 11 9 14 15 13 12 13 13 14 15 16 17 18 20 23 24 26 26 26 26
6 7 7 7 7 6 6 7 7 8 10 10 9 7 7 10 10 11 12 12 13 14 13 13 14 15 15 16 17 17 18 19 20 23 24 25 26 26
8 8 8 7 8 8 7 8 8 8 10 12 10 10 10 9 10 10 12 13 13 10 13 14 15 17 17 17 18 18 18 19 20 21 22 23 24 25
9 9 9 9 10 9 9 9 9 9 9 11 12 9 10 9 10 11 12 11 14 14 14 18 20 20 19 19 19 19 19 20 20 20 21 22 23 23
10 10 10 11 11 11 10 10 10 10 10 11 11 10 10 9 9 10 11 9 10 11 12 12 14 18 20 21 20 20 20 21 21 21 21 22 23 23
11 11 12 11 10 10 10 10 10 10 11 11 11 11 10 8 9 9 10 10 10 10 11 11 11 12 14 20 22 21 20 20 20 21 21 21 22 23
11 11 12 12 13 15 15 15 13 13 13 12 12 12 12 11 10 10 11 12 12 9 9 11 11 12 11 14 12 16 18 18 19 20 21 22 22 23
12 12 12 11 11 13 15 18 18 20 18 16 16 16 15 12 12 13 12 13 13 11 11 13 12 13 12 13 10 12 14 16 17 19 20 21 22 22
14 14 14 14 13 13 14 14 15 15 16 17 16 17 16 14 12 13 14 14 15 13 13 14 13 13 13 12 12 16 17 18 18 19 19 20 20 21
15 15 15 15 13 12 14 16 16 15 15 18 18 17 16 15 13 12 14 14 14 13 11 12 13 13 13 13 12 16 18 18 19 19 19 19 19 18
13 14 15 17 14 12 14 15 17 16 15 13 14 17 18 18 18 17 16 15 15 14 12 11 12 12 12 12 11 9 12 17 20 20 20 19 17 14
13 13 12 13 17 16 15 15 17 15 15 15 14 14 14 14 14 15 15 15 15 15 12 10 11 12 12 12 11 10 10 10 11 14 19 20 18 15
14 14 12 6 12 15 14 16 16 13 14 15 15 14 14 13 13 13 14 16 16 17 15 14 13 13 14 14 13 11 10 10 10 10 10 13 17 20
14 16 15 11 10 13 18 18 15 13 14 15 15 15 14 13 12 11 13 14 16 18 19 17 16 15 15 15 15 13 12 10 10 11 10 10 9 9
14 14 16 18 16 16 14 14 14 15 15 15 15 14 13 13 13 12 12 12 13 14 16 19 17 17 16 17 15 15 13 12 10 10 10 10 10 10
10 12 14 15 14 14 14 14 14 14 15 15 15 14 14 13 13 12 12 12 13 14 14 12 14 15 17 16 15 15 14 14 13 11 10 11 11 10
10 15 16 16 16 15 14 14 14 14 14 14 14 14 14 14 13 12 12 13 14 14 14 12 11 11 12 14 16 17 16 14 13 12 11 11 12 10
11 15 16 16 16 15 14 14 14 14 12 13 14 14 13 13 13 13 13 13 13 14 13 12 12 12 14 15 15 18 17 14 12 12 12 12 12 10
13 15 15 15 14 14 14 14 13 12 12 12 13 14 13 13 13 13 13 14 14 14 14 13 13 13 15 15 13 11 16 16 13 13 12 11 10 8
13 14 14 14 14 14 14 13 13 12 13 13 12 13 13 12 13 13 13 14 14 14 14 14 13 14 13 12 13 14 13 16 15 12 11 10 10 9
14 14 13 14 14 14 13 13 13 13 13 13 12 12 12 12 13 14 14 13 13 14 15 13 13 11 12 13 15 15 14 11 12 13 11 10 9 8
14 13 13 13 13 13 13 13 14 13 12 12 11 11 12 12 12 12 13 13 13 13 14 13 11 11 12 13 14 14 15 13 10 10 11 11 12 9
Wind_Direction
250 238 256 269 266 274 276 280 288 294 295 289 278 282 280 287 294 286 283 257 270 275 271 269 267 264 260 255 250 246 242 238 237 238 239 237 235 235
256 269 266 267 268 266 269 270 272 280 288 295 289 288 301 298 276 277 278 266 257 254 257 263 265 265 263 260 256 252 248 244 239 237 237 235 234 234
246 245 249 267 271 272 266 266 267 270 277 285 287 284 278 279 287 283 277 273 266 228 234 253 261 262 261 260 258 256 251 248 244 240 236 234 233 233
250 252 253 252 252 263 269 268 268 269 271 281 286 285 276 273 273 276 277 273 275 243 225 245 255 257 258 257 257 256 253 250 248 245 240 237 235 234
252 253 253 255 254 258 260 266 268 266 267 274 278 281 279 274 276 272 271 268 272 264 232 234 242 247 252 255 255 254 251 249 247 246 243 241 238 236
252 253 254 255 254 256 255 256 262 270 268 268 274 277 274 272 270 274 274 264 265 273 272 263 245 238 244 247 248 249 248 247 247 246 244 242 241 239
253 253 254 254 264 260 264 265 264 264 270 270 273 275 275 278 276 278 279 281 273 268 270 268 258 251 243 236 237 241 242 243 244 245 245 243 242 241
257 258 257 243 238 233 245 255 262 262 267 274 276 277 279 278 278 278 280 279 279 274 272 272 271 268 264 260 239 223 228 237 242 244 245 244 243 242
260 260 262 260 241 249 237 229 241 243 247 258 269 273 278 276 280 277 273 276 280 285 282 275 272 269 267 262 222 216 229 238 244 246 246 245 243 243
256 256 258 263 259 255 260 258 255 248 238 239 251 261 266 273 273 271 276 274 269 263 260 266 269 269 269 266 231 215 229 238 243 247 247 246 244 244
255 255 256 258 251 236 253 261 264 264 252 236 240 251 262 268 266 267 268 268 269 268 254 256 265 268 269 266 251 214 221 232 238 241 243 245 245 244
258 256 248 244 251 226 247 257 261 264 269 265 241 243 250 249 237 242 255 261 266 269 264 257 262 267 270 266 262 245 231 229 231 235 236 238 236 240
266 264 261 220 223 226 234 252 260 268 271 270 266 259 251 249 244 236 238 249 258 262 264 262 264 266 266 271 267 260 256 254 241 235 230 227 223 224
266 268 271 233 217 223 231 244 250 257 262 264 263 262 259 256 252 248 242 243 249 257 266 268 268 267 270 271 270 266 257 254 254 254 250 220 217 221
263 270 279 275 247 244 238 236 237 244 250 256 259 261 260 260 260 256 251 247 249 253 255 253 253 257 259 263 268 268 267 261 254 252 249 244 237 225
260 264 252 249 246 257 262 240 236 242 248 253 258 261 261 257 252 252 253 250 250 252 245 243 245 250 254 256 260 264 263 262 259 254 252 250 244 238
298 278 272 267 260 254 253 251 247 245 243 248 254 257 257 255 253 251 249 252 255 259 258 247 239 238 246 255 258 257 258 258 256 253 250 253 250 244
279 272 270 267 265 264 263 261 255 250 248 249 251 253 255 256 255 251 248 248 251 254 256 254 249 244 245 247 240 252 255 256 255 249 244 248 252 244
256 265 267 267 268 268 266 266 265 261 255 252 252 252 253 254 254 252 249 246 248 252 255 254 248 246 248 254 244 221 240 250 250 248 243 243 250 249
259 266 269 271 272 271 270 269 269 268 262 256 254 253 251 250 251 251 249 247 247 249 250 249 246 244 246 257 267 254 220 238 246 246 247 246 249 250
276 274 274 274 273 272 270 270 269 267 264 259 258 256 254 252 250 250 249 244 245 249 250 250 248 243 250 257 260 260 248 221 234 245 248 246 246 243
283 281 280 278 276 274 271 267 266 263 260 256 254 253 251 250 250 248 249 247 243 244 250 254 253 245 242 244 250 256 257 246 225 229 244 250 246 244
287 286 284 281 276 274 271 266 262 259 257 256 252 249 248 248 249 249 247 248 248 248 250 252 251 245 241 242 249 253 254 250 241 230 230 222 226 240
Height
1560 1559 1559 1559 1559 1558 1558 1558 1557 1555 1553 1552 1552 1551 1550 1549 1547 1545 1545 1544 1543 1544 1544 1544 1545 1545 1546 1546 1547 1548 1549 1551 1553 1555 1557 1559 1561 1563
1556 1556 1556 1557 1556 1556 1555 1554 1554 1553 1551 1550 1549 1548 1546 1545 1544 1541 1540 1539 1538 1538 1538 1539 1539 1539 1540 1540 1541 1542 1543 1544 1545 1547 1549 1551 1553 1555
1554 1554 1553 1553 1553 1553 1552 1551 1550 1550 1548 1546 1546 1544 1541 1539 1539 1537 1536 1535 1535 1533 1532 1532 1533 1533 1533 1534 1534 1535 1536 1536 1538 1539 1541 1543 1545 1547
1552 1551 1551 1550 1549 1549 1548 1548 1547 1545 1544 1542 1541 1540 1538 1536 1534 1532 1532 1531 1530 1529 1527 1526 1526 1526 1526 1527 1527 1528 1528 1529 1530 1531 1533 1535 1537 1539
1548 1547 1547 1547 1545 1545 1544 1543 1543 1542 1540 1538 1536 1535 1534 1532 1530 1528 1527 1525 1524 1524 1522 1520 1519 1519 1519 1520 1520 1520 1521 1521 1522 1523 1524 1526 1528 1530
1544 1543 1543 1542 1541 1540 1539 1538 1538 1537 1536 1534 1532 1531 1529 1527 1526 1524 1523 1521 1520 1519 1517 1516 1514 1512 1512 1512 1512 1512 1513 1513 1514 1515 1516 1518 1519 1521
1539 1538 1537 1537 1536 1535 1535 1534 1533 1532 1531 1530 1528 1526 1525 1523 1522 1520 1518 1516 1515 1513 1512 1510 1509 1507 1506 1505 1504 1504 1505 1505 1506 1507 1508 1510 1511 1513
1534 1533 1532 1531 1530 1529 1528 1528 1527 1526 1525 1524 1523 1521 1519 1518 1517 1515 1514 1512 1509 1509 1507 1505 1504 1502 1501 1500 1498 1497 1497 1497 1498 1499 1500 1501 1503 1504
1529 1528 1527 1527 1525 1523 1522 1520 1519 1519 1518 1517 1516 1514 1513 1513 1511 1509 1508 1506 1503 1503 1502 1499 1498 1496 1495 1494 1492 1491 1490 1490 1490 1491 1492 1493 1494 1496
1522 1521 1520 1519 1519 1518 1517 1516 1514 1512 1511 1509 1507 1506 1506 1505 1504 1503 1501 1499 1496 1495 1494 1492 1491 1490 1489 1487 1485 1483 1483 1482 1483 1483 1484 1485 1486 1487
1516 1515 1514 1513 1512 1511 1510 1508 1506 1505 1504 1502 1500 1498 1497 1497 1496 1495 1494 1493 1490 1489 1488 1486 1484 1483 1482 1480 1479 1476 1475 1475 1475 1475 1476 1477 1478 1479
1509 1508 1506 1505 1504 1503 1502 1501 1499 1498 1497 1496 1493 1490 1489 1487 1487 1486 1486 1486 1484 1482 1481 1480 1478 1477 1475 1474 1473 1471 1469 1467 1467 1467 1468 1469 1470 1470
1503 1501 1500 1498 1497 1496 1495 1493 1491 1490 1489 1487 1486 1483 1481 1480 1479 1478 1477 1477 1476 1474 1475 1474 1472 1471 1470 1468 1467 1466 1464 1463 1461 1460 1460 1460 1461 1462
1494 1494 1493 1491 1489 1487 1486 1484 1483 1482 1480 1479 1478 1476 1474 1473 1472 1471 1469 1468 1466 1466 1466 1466 1465 1464 1463 1461 1460 1459 1458 1457 1456 1455 1454 1454 1453 1454
1485 1484 1483 1482 1480 1478 1476 1475 1474 1472 1471 1470 1468 1467 1466 1465 1464 1462 1461 1459 1457 1456 1456 1456 1456 1456 1455 1454 1453 1452 1452 1450 1449 1448 1448 1447 1447 1447
1477 1475 1473 1471 1470 1468 1466 1464 1463 1462 1461 1460 1459 1458 1457 1456 1454 1453 1452 1451 1450 1448 1448 1447 1446 1447 1446 1446 1446 1445 1445 1444 1443 1442 1441 1441 1440 1440
1469 1466 1465 1463 1461 1458 1457 1455 1454 1452 1451 1450 1449 1448 1447 1446 1445 1445 1444 1443 1442 1441 1440 1440 1438 1437 1437 1438 1437 1437 1437 1436 1436 1435 1434 1434 1434 1433
1460 1457 1455 1454 1451 1449 1447 1446 1444 1443 1441 1440 1440 1439 1438 1437 1436 1436 1435 1434 1433 1432 1432 1432 1432 1431 1430 1428 1428 1428 1429 1428 1428 1428 1428 1427 1427 1427
1450 1447 1446 1444 1442 1440 1438 1436 1435 1433 1432 1431 1430 1430 1429 1428 1427 1427 1426 1425 1424 1424 1424 1424 1424 1423 1422 1420 1419 1420 1420 1420 1421 1421 1420 1420 1420 1421
1441 1439 1437 1435 1433 1431 1429 1427 1426 1424 1423 1422 1421 1420 1420 1419 1418 1418 1417 1417 1416 1416 1416 1415 1415 1415 1414 1414 1413 1413 1412 1413 1413 1413 1414 1414 1414 1414
1434 1431 1428 1426 1424 1422 1420 1418 1416 1415 1414 1413 1412 1411 1411 1410 1409 1409 1409 1408 1408 1408 1407 1407 1407 1407 1407 1407 1406 1405 1406 1405 1406 1406 1407 1408 1408 1408
1426 1423 1420 1418 1415 1413 1411 1409 1407 1406 1404 1403 1402 1402 1401 1401 1401 1400 1400 1400 1400 1399 1399 1399 1400 1400 1399 1399 1398 1398 1398 1399 1398 1399 1400 1401 1401 1402
1418 1415 1412 1409 1407 1404 1402 1400 1398 1397 1396 1394 1394 1393 1393 1393 1392 1392 1392 1392 1392 1392 1392 1392 1392 1392 1391 1391 1391 1391 1391 1392 1392 1392 1392 1393 1394 1396